This demonstration page uses our WeatherBlox Daily Observations layout. Learn more.

Left ArrowRight Arrow

41.55636, -103.73856

Hourly Observations for August 19, 2022

Temp ( °F °C ) Dew Point ( °F °C ) Humidity (%) Winds ( mph kmh ) Pressure ( in mb ) Visibility ( mi km ) Precip ( " mm )
12:58 am 00:58 Partly Cloudy 59 15.1 38 3.6 46 46 SW 3 6 29.94 1014 10 16 0.00 0.00
1:58 am 01:58 Clear 65 18.6 41 5.1 41 41 Calm 29.91 1013 10 16 0.00 0.00
2:58 am 02:58 Mostly Clear 61 16 40 4.7 47 47 Calm 29.92 1013 10 16 0.00 0.00
3:58 am 03:58 Clear 62 16.4 42 5.4 48 48 Calm 29.91 1013 10 16 0.00 0.00
4:58 am 04:58 Partly Cloudy 56 13.6 41 5.2 57 57 W 3 6 29.92 1013 10 16 0.00 0.00
5:58 am 05:58 Mostly Clear 56 13.5 41 4.9 56 56 W 3 6 29.94 1014 10 16 0.00 0.00
6:58 am 06:58 Mostly Cloudy 56 13.1 42 5.5 60 60 WSW 5 7 29.96 1015 10 16 0.00 0.00
7:58 am 07:58 Mostly Cloudy 60 15.6 45 7.4 58 58 Calm 29.98 1015 10 16 0.00 0.00
8:58 am 08:58 Partly Cloudy 68 20 47 8.6 48 48 ENE 12 19 29.97 1015 10 16 0.00 0.00
9:58 am 09:58 Partly Cloudy 72 22.4 47 8.5 41 41 ENE 13 20 29.98 1015 10 16 0.00 0.00
10:58 am 10:58 Partly Cloudy 75 23.9 46 7.9 36 36 NE 9 15 29.97 1015 10 16 0.00 0.00
11:58 am 11:58 Mostly Sunny 78 25.4 46 7.5 32 32 NE 14 22 29.96 1015 10 16 0.00 0.00
12:58 pm 12:58 Mostly Sunny 78 25.5 44 6.6 30 30 NNE 9 15 29.96 1014 10 16 0.00 0.00
1:58 pm 13:58 Sunny 79 26.3 43 6.3 28 28 NNE 16 26 29.94 1014 10 16 0.00 0.00
2:58 pm 14:58 Partly Cloudy 81 27.1 43 5.9 26 26 N 16 26 29.92 1013 10 16 0.00 0.00
3:58 pm 15:58 Mostly Sunny 81 27.3 41 4.9 24 24 ENE 13 20 29.91 1013 10 16 0.00 0.00
4:58 pm 16:58 Mostly Sunny 82 27.8 38 3.5 21 21 NE 14 22 29.90 1013 10 16 0.00 0.00
5:58 pm 17:58 Mostly Sunny 79 26.2 38 3.4 23 23 ENE 10 17 29.91 1013 10 16 0.00 0.00
6:58 pm 18:58 Sunny 75 24 38 3.3 26 26 E 13 20 29.93 1014 10 16 0.00 0.00
7:58 pm 19:58 Clear 68 19.8 38 3.1 33 33 E 12 19 29.96 1015 10 16 0.00 0.00
8:58 pm 20:58 Clear 64 17.8 39 4 40 40 ESE 12 19 29.97 1015 10 16 0.00 0.00
9:58 pm 21:58 Clear 63 17.1 39 3.7 41 41 SE 12 19 29.98 1015 10 16 0.00 0.00
10:58 pm 22:58 Clear 62 16.6 38 3.6 42 42 SSE 12 19 29.99 1016 10 16 0.00 0.00
11:58 pm 23:58 Clear 61 16.3 39 3.7 43 43 SSE 12 19 30.00 1016 10 16 0.00 0.00

Powered by AerisWeather